GW2656 Weather Reports


time (UTC)temp
C
wind
direction
speed
KPH
gust
KPH
rain 1hr
cm
rain 24hr
cm
rain mn
cm
humidity
%
barometer
mb
20260506114533 16 314 3.2 3.2 0.00 0.00 0.00 23 1009.3
20260506114032 16 323 1.6 3.2 0.00 0.00 0.00 24 1009.4
20260506113529 16 335 3.2 3.2 0.00 0.00 0.00 22 1009.5
20260506113026 17 301 1.6 1.6 0.00 0.00 0.00 24 1009.7
20260506112522 16 344 3.2 3.2 0.00 0.00 0.00 24 1009.4
20260506112020 17 7 1.6 1.6 0.00 0.00 0.00 25 1009.7
20260506111518 16 323 4.8 4.8 0.00 0.00 0.00 23 1009.8
20260506111015 16 336 0.0 1.6 0.00 0.00 0.00 24 1010.1
20260506110513 16 2 6.4 11.3 0.00 0.00 0.00 24 1009.9
20260506110010 16 36 1.6 3.2 0.00 0.00 0.00 21 1010.0
20260506105505 16 311 4.8 4.8 0.00 0.00 0.00 24 1010.1
20260506105003 16 325 0.0 1.6 0.00 0.00 0.00 25 1010.2
20260506104501 15 313 4.8 8.0 0.00 0.00 0.00 25 1010.4
20260506103959 15 296 3.2 3.2 0.00 0.00 0.00 29 1010.5
20260506103455 14 309 3.2 3.2 0.00 0.00 0.00 29 1010.5
20260506102952 15 324 6.4 9.7 0.00 0.00 0.00 29 1010.5
20260506102450 15 354 1.6 3.2 0.00 0.00 0.00 31 1010.7
20260506101947 14 290 4.8 8.0 0.00 0.00 0.00 30 1010.8
20260506101444 14 322 6.4 9.7 0.00 0.00 0.00 31 1010.8
20260506100941 15 60 6.4 8.0 0.00 0.00 0.00 30 1010.8
20260506100439 14 325 8.0 11.3 0.00 0.00 0.00 30 1010.7
20260506095937 14 1 4.8 8.0 0.00 0.00 0.00 32 1010.7
20260506095436 13 334 1.6 1.6 0.00 0.00 0.00 32 1011.1
20260506094931 14 326 3.2 3.2 0.00 0.00 0.00 31 1011.2
20260506094430 14 297 9.7 16.1 0.00 0.00 0.00 32 1011.2
20260506093927 13 282 6.4 12.9 0.00 0.00 0.00 32 1011.3
20260506093425 13 332 8.0 11.3 0.00 0.00 0.00 32 1011.3
20260506092923 14 357 11.3 14.5 0.00 0.00 0.00 32 1011.1
20260506092421 13 320 3.2 3.2 0.00 0.00 0.00 35 1011.3
20260506091917 13 330 3.2 4.8 0.00 0.00 0.00 37 1011.2
20260506091415 12 357 4.8 8.0 0.00 0.00 0.00 37 1011.7
20260506090912 12 338 6.4 9.7 0.00 0.00 0.00 39 1011.5
20260506090409 12 315 6.4 9.7 0.00 0.00 0.00 39 1011.4
20260506085906 12 351 8.0 12.9 0.00 0.00 0.00 39 1011.7
20260506085403 12 312 3.2 3.2 0.00 0.00 0.00 39 1011.9
20260506084859 11 321 3.2 3.2 0.00 0.00 0.00 41 1011.7
20260506084356 11 320 3.2 4.8 0.00 0.00 0.00 41 1011.8
20260506083852 11 357 11.3 12.9 0.00 0.00 0.00 41 1011.5
20260506083350 11 329 9.7 11.3 0.00 0.00 0.00 41 1011.4
20260506082847 11 11 3.2 3.2 0.00 0.00 0.00 43 1011.7
20260506082344 10 340 3.2 4.8 0.00 0.00 0.00 44 1011.5
20260506081839 10 10 8.0 9.7 0.00 0.00 0.00 44 1011.7
20260506081338 10 327 8.0 11.3 0.00 0.00 0.00 45 1011.3
20260506080835 10 263 9.7 12.9 0.00 0.00 0.00 45 1011.5
20260506080331 10 352 9.7 14.5 0.00 0.00 0.00 46 1011.4
20260506073316 9 353 6.4 8.0 0.00 0.00 0.00 46 1011.2
20260506072812 9 311 12.9 17.7 0.00 0.00 0.00 46 1011.1
20260506072310 9 53 11.3 16.1 0.00 0.00 0.00 47 1011.1
20260506071808 8 6 4.8 4.8 0.00 0.00 0.00 48 1011.0
20260506071306 8 319 9.7 14.5 0.00 0.00 0.00 48 1011.1
20260506070802 8 25 3.2 4.8 0.00 0.00 0.00 49 1010.8
20260506070259 8 7 3.2 3.2 0.00 0.00 0.00 50 1010.7
20260506062236 7 320 8.0 12.9 0.00 0.00 0.00 59 1010.0
20260506061732 7 319 1.6 3.2 0.00 0.00 0.00 59 1010.0
20260506061230 6 339 1.6 3.2 0.00 0.00 0.00 60 1009.8
20260506060728 7 286 4.8 8.0 0.00 0.00 0.00 60 1009.9
20260506060225 6 356 12.9 16.1 0.00 0.00 0.00 60 1009.9
20260506051151 5 344 8.0 9.7 0.00 0.00 0.00 65 1009.2
20260506050649 5 332 4.8 4.8 0.00 0.00 0.00 65 1009.2
20260506050146 5 301 9.7 12.9 0.00 0.00 0.00 65 1009.1
20260506044637 5 314 4.8 8.0 0.00 0.00 0.00 65 1008.8
20260506044134 5 344 4.8 4.8 0.00 0.00 0.00 65 1008.7
20260506043631 5 305 8.0 9.7 0.00 0.00 0.00 65 1008.8
20260506043129 5 331 6.4 11.3 0.00 0.00 0.00 65 1008.6
20260506042628 5 62 9.7 12.9 0.00 0.00 0.00 65 1008.7
20260506042125 5 341 8.0 9.7 0.00 0.00 0.00 64 1008.7
20260506041624 5 343 8.0 9.7 0.00 0.00 0.00 64 1008.6
20260506041120 5 346 8.0 11.3 0.00 0.00 0.00 64 1008.8
20260506040618 5 339 8.0 9.7 0.00 0.00 0.00 63 1008.8
20260506040115 5 346 4.8 8.0 0.00 0.00 0.00 62 1008.7
20260506035611 5 320 4.8 8.0 0.00 0.00 0.00 62 1008.7
20260506035108 5 319 6.4 9.7 0.00 0.00 0.00 60 1008.6
20260506034605 6 303 4.8 8.0 0.00 0.00 0.00 59 1008.4
20260506034102 5 328 4.8 9.7 0.00 0.00 0.00 58 1008.6
20260506033559 6 328 1.6 1.6 0.00 0.00 0.00 59 1008.5
20260506033056 6 344 4.8 8.0 0.00 0.00 0.00 60 1008.5
20260506032554 5 351 4.8 8.0 0.00 0.00 0.00 61 1008.6
20260506032050 5 334 8.0 12.9 0.00 0.00 0.00 62 1008.6
20260506031548 5 326 11.3 16.1 0.00 0.00 0.00 62 1008.8
20260506031044 5 306 3.2 12.9 0.00 0.00 0.00 62 1008.6
20260506030543 5 344 8.0 11.3 0.00 0.00 0.00 62 1008.7
20260506030040 5 335 4.8 4.8 0.00 0.00 0.00 62 1008.4
20260506025537 5 336 1.6 3.2 0.00 0.00 0.00 63 1008.6
20260506025033 6 344 4.8 8.0 0.00 0.00 0.00 61 1008.5
20260506024530 6 315 9.7 12.9 0.00 0.00 0.00 61 1008.6
20260506024026 5 359 8.0 11.3 0.00 0.00 0.00 61 1008.5
20260506023522 5 349 8.0 11.3 0.00 0.00 0.00 65 1008.5
20260506023020 5 332 9.7 12.9 0.00 0.00 0.00 64 1008.6
20260506022517 5 337 6.4 9.7 0.00 0.00 0.00 64 1008.6
20260506022015 5 321 8.0 11.3 0.00 0.00 0.00 63 1008.7
20260506021512 5 358 6.4 8.0 0.00 0.00 0.00 62 1008.6
20260506021009 5 327 4.8 4.8 0.00 0.00 0.00 62 1008.8
20260506020507 5 353 4.8 4.8 0.00 0.00 0.00 61 1008.8
20260506020004 5 332 3.2 3.2 0.00 0.00 0.00 62 1009.1
20260506015501 5 313 4.8 8.0 0.00 0.00 0.00 63 1008.8
20260506014958 5 318 4.8 4.8 0.00 0.00 0.00 63 1009.1
20260506014455 5 311 3.2 4.8 0.00 0.00 0.00 63 1009.0
20260506013951 5 337 3.2 4.8 0.00 0.00 0.00 63 1009.0
20260506013449 5 351 8.0 11.3 0.00 0.00 0.00 63 1009.0
20260506012945 5 359 8.0 9.7 0.00 0.00 0.00 63 1009.0
20260506012442 5 297 8.0 9.7 0.00 0.00 0.00 62 1009.1
20260506011939 5 318 9.7 11.3 0.00 0.00 0.00 62 1009.1
20260506011436 5 357 12.9 16.1 0.00 0.00 0.00 62 1008.8
20260506010933 5 4 9.7 12.9 0.00 0.00 0.00 61 1009.0
20260506010432 6 303 14.5 17.7 0.00 0.00 0.00 61 1009.2
20260506005928 6 316 9.7 14.5 0.00 0.00 0.00 61 1009.1
20260506005426 6 340 11.3 16.1 0.00 0.00 0.00 60 1009.2
20260506004921 6 309 6.4 11.3 0.00 0.00 0.00 60 1009.0
20260506004419 6 324 9.7 14.5 0.00 0.00 0.00 59 1009.4
20260506003915 6 337 8.0 11.3 0.00 0.00 0.00 59 1009.1
20260506003411 6 324 4.8 11.3 0.00 0.00 0.00 58 1009.3
20260506002908 6 326 11.3 14.5 0.00 0.00 0.00 57 1009.2
20260506002404 6 324 8.0 12.9 0.00 0.00 0.00 56 1009.2
20260506001859 6 341 6.4 8.0 0.00 0.00 0.00 55 1009.2
20260506001356 6 354 6.4 8.0 0.00 0.00 0.00 55 1009.1
20260506000854 6 339 8.0 11.3 0.00 0.00 0.00 54 1009.1
20260506000354 6 328 4.8 9.7 0.00 0.00 0.00 53 1009.1
20260505235848 6 356 8.0 9.7 0.00 0.00 0.00 53 1009.2
20260505235346 6 351 11.3 14.5 0.00 0.00 0.00 52 1009.1
20260505234842 7 333 6.4 9.7 0.00 0.00 0.00 52 1009.0
20260505234340 7 357 8.0 11.3 0.00 0.00 0.00 51 1009.1
20260505233837 7 343 6.4 8.0 0.00 0.00 0.00 51 1009.2
20260505233335 7 343 6.4 8.0 0.00 0.00 0.00 50 1009.0
20260505232832 7 309 3.2 4.8 0.00 0.00 0.00 51 1009.0
20260505232330 7 327 4.8 8.0 0.00 0.00 0.00 50 1009.3
20260505231826 7 343 6.4 9.7 0.00 0.00 0.00 49 1009.3
20260505231324 6 333 3.2 3.2 0.00 0.00 0.00 50 1009.3
20260505230822 6 340 4.8 4.8 0.00 0.00 0.00 49 1009.2
20260505230319 6 339 4.8 4.8 0.00 0.00 0.00 50 1009.4
20260505225815 5 323 1.6 1.6 0.00 0.00 0.00 50 1009.4
20260505225313 5 326 0.0 0.0 0.00 0.00 0.00 52 1009.3
20260505224808 5 327 0.0 1.6 0.00 0.00 0.00 50 1009.3
20260505224306 6 328 0.0 0.0 0.00 0.00 0.00 49 1009.2
20260505223803 6 319 0.0 1.6 0.00 0.00 0.00 47 1009.2
20260505223300 5 324 0.0 0.0 0.00 0.00 0.00 51 1009.3
20260505222755 6 333 0.0 0.0 0.00 0.00 0.00 48 1009.2
20260505222251 6 326 0.0 0.0 0.00 0.00 0.00 45 1009.7
20260505221749 5 320 0.0 0.0 0.00 0.00 0.00 46 1009.4
20260505221245 6 326 0.0 0.0 0.00 0.00 0.00 46 1009.3
20260505220742 6 330 0.0 1.6 0.00 0.00 0.00 45 1009.3
20260505220239 6 317 4.8 4.8 0.00 0.00 0.00 46 1009.4
20260505215738 6 328 0.0 1.6 0.00 0.00 0.00 46 1009.5
20260505215235 6 333 1.6 1.6 0.00 0.00 0.00 46 1009.3
20260505214733 6 327 0.0 1.6 0.00 0.00 0.00 48 1009.5
20260505214230 6 307 1.6 1.6 0.00 0.00 0.00 45 1009.5
20260505213727 6 295 1.6 1.6 0.00 0.00 0.00 46 1009.5
20260505213224 6 326 0.0 0.0 0.00 0.00 0.00 47 1009.5
20260505212720 6 324 1.6 1.6 0.00 0.00 0.00 45 1009.7
20260505212218 6 327 0.0 0.0 0.00 0.00 0.00 42 1009.5
20260505211715 7 327 0.0 0.0 0.00 0.00 0.00 43 1009.4
20260505211212 7 324 1.6 1.6 0.00 0.00 0.00 43 1009.9
20260505210708 7 326 0.0 0.0 0.00 0.00 0.00 43 1009.7
20260505210205 7 335 1.6 1.6 0.00 0.00 0.00 43 1009.7
20260505205703 7 333 0.0 0.0 0.00 0.00 0.00 44 1009.5
20260505205201 7 327 0.0 0.0 0.00 0.00 0.00 43 1009.5
20260505204657 7 328 0.0 0.0 0.00 0.00 0.00 44 1009.4
20260505204155 7 327 0.0 1.6 0.00 0.00 0.00 44 1009.5
20260505203652 6 329 0.0 1.6 0.00 0.00 0.00 45 1009.2
20260505203148 7 327 1.6 1.6 0.00 0.00 0.00 45 1009.4
20260505202644 7 328 0.0 1.6 0.00 0.00 0.00 44 1009.5
20260505202140 7 326 1.6 1.6 0.00 0.00 0.00 43 1009.3
20260505201637 7 327 1.6 3.2 0.00 0.00 0.00 42 1009.5
20260505201135 7 307 1.6 3.2 0.00 0.00 0.00 41 1009.4
20260505200633 7 327 0.0 0.0 0.00 0.00 0.00 42 1009.7
20260505200130 7 327 0.0 0.0 0.00 0.00 0.00 41 1009.4
20260505195625 7 346 3.2 3.2 0.00 0.00 0.00 43 1009.3
20260505195123 7 327 1.6 3.2 0.00 0.00 0.00 42 1009.4
20260505194614 7 326 0.0 0.0 0.00 0.00 0.00 42 1009.4
20260505194110 7 325 0.0 0.0 0.00 0.00 0.00 42 1009.2
20260505193607 8 335 1.6 1.6 0.00 0.00 0.00 41 1009.2
20260505193104 8 305 0.0 1.6 0.00 0.00 0.00 41 1009.3
20260505192603 8 321 1.6 1.6 0.00 0.00 0.00 40 1009.2
20260505192100 8 325 0.0 0.0 0.00 0.00 0.00 41 1009.2
20260505191558 8 323 0.0 1.6 0.00 0.00 0.00 41 1009.2
20260505191056 8 319 0.0 1.6 0.00 0.00 0.00 42 1009.3
20260505190550 7 320 0.0 1.6 0.00 0.00 0.00 43 1009.2
20260505190046 8 325 0.0 0.0 0.00 0.00 0.00 43 1009.1
20260505185543 8 335 0.0 0.0 0.00 0.00 0.00 41 1009.2
20260505185040 8 310 0.0 0.0 0.00 0.00 0.00 39 1009.0
20260505184537 8 322 1.6 1.6 0.00 0.00 0.00 39 1009.2
20260505184033 8 302 1.6 1.6 0.00 0.00 0.00 39 1009.0
20260505183530 9 322 0.0 0.0 0.00 0.00 0.00 38 1009.2
20260505183028 9 324 0.0 0.0 0.00 0.00 0.00 39 1009.1
20260505182524 9 332 1.6 1.6 0.00 0.00 0.00 38 1009.1
20260505182020 9 334 0.0 0.0 0.00 0.00 0.00 38 1009.0
20260505181517 10 323 1.6 1.6 0.00 0.00 0.00 37 1009.2
20260505181015 10 333 0.0 0.0 0.00 0.00 0.00 36 1009.0
20260505180510 10 341 3.2 3.2 0.00 0.00 0.00 35 1009.0
20260505180008 10 359 1.6 1.6 0.00 0.00 0.00 35 1008.8
20260505175502 10 19 4.8 8.0 0.00 0.00 0.00 34 1008.8
20260505174959 10 355 3.2 3.2 0.00 0.00 0.00 33 1008.7
20260505174451 11 31 3.2 3.2 0.00 0.00 0.00 32 1008.8
20260505173947 11 354 3.2 3.2 0.00 0.00 0.00 31 1008.7
20260505173444 11 313 3.2 4.8 0.00 0.00 0.00 30 1008.6
20260505172941 11 326 3.2 3.2 0.00 0.00 0.00 30 1008.5
20260505172439 11 343 1.6 3.2 0.00 0.00 0.00 29 1008.5
20260505171938 11 333 1.6 1.6 0.00 0.00 0.00 29 1008.4
20260505171436 11 323 3.2 3.2 0.00 0.00 0.00 28 1008.4
20260505170932 12 326 1.6 1.6 0.00 0.00 0.00 27 1008.3
20260505170429 12 356 4.8 4.8 0.00 0.00 0.00 26 1008.3
20260505165924 12 347 3.2 3.2 0.00 0.00 0.00 26 1008.4
20260505165420 12 335 1.6 3.2 0.00 0.00 0.00 25 1008.3
20260505164915 12 323 3.2 3.2 0.00 0.00 0.00 25 1008.4
20260505164407 12 341 3.2 4.8 0.00 0.00 0.00 24 1008.3
20260505163905 12 347 4.8 4.8 0.00 0.00 0.00 24 1008.1
20260505163404 13 20 3.2 4.8 0.00 0.00 0.00 23 1008.0
20260505162902 13 8 4.8 4.8 0.00 0.00 0.00 22 1008.1
20260505162357 13 347 3.2 3.2 0.00 0.00 0.00 22 1007.9
20260505161855 14 329 6.4 9.7 0.00 0.00 0.00 21 1008.0
20260505161351 15 340 3.2 3.2 0.00 0.00 0.00 22 1008.3
20260505160849 15 351 4.8 8.0 0.00 0.00 0.00 20 1007.7
20260505160347 15 10 1.6 3.2 0.00 0.00 0.00 21 1007.8
20260505153326 16 58 3.2 4.8 0.00 0.00 0.00 17 1007.7
20260505152823 16 71 4.8 8.0 0.00 0.00 0.00 16 1007.4
20260505152320 16 93 9.7 11.3 0.00 0.00 0.00 14 1007.7
20260505151820 17 42 11.3 16.1 0.00 0.00 0.00 13 1007.5
20260505151316 17 334 6.4 9.7 0.00 0.00 0.00 16 1007.4
20260505150813 17 135 6.4 11.3 0.00 0.00 0.00 16 1007.7
20260505150310 17 303 1.6 3.2 0.00 0.00 0.00 17 1007.5
20260505140235 17 6 11.3 16.1 0.00 0.00 0.00 14 1007.4
20260505130159 18 32 6.4 11.3 0.00 0.00 0.00 16 1007.5
20260505124649 17 63 8.0 12.9 0.00 0.00 0.00 15 1007.5
20260505124145 18 346 8.0 12.9 0.00 0.00 0.00 15 1007.8
20260505123641 17 318 6.4 9.7 0.00 0.00 0.00 15 1007.9
20260505123138 17 49 11.3 12.9 0.00 0.00 0.00 14 1008.0
20260505122635 18 293 8.0 14.5 0.00 0.00 0.00 13 1008.0
20260505122132 18 287 8.0 11.3 0.00 0.00 0.00 16 1008.0
20260505121629 18 318 3.2 3.2 0.00 0.00 0.00 17 1007.9
20260505121126 17 10 4.8 8.0 0.00 0.00 0.00 16 1008.3
20260505120621 17 345 8.0 9.7 0.00 0.00 0.00 15 1008.1
20260505120117 18 320 9.7 12.9 0.00 0.00 0.00 15 1008.3
20260505115612 17 322 4.8 4.8 0.00 0.00 0.00 16 1008.4
20260505115109 17 95 11.3 14.5 0.00 0.00 0.00 15 1008.3
20260505114601 17 359 9.7 14.5 0.00 0.00 0.00 16 1008.3